SHIJIAN-17 (SJ-17) 1 41838U 16065A 21061.94494855 -.00000371 00000-0 00000-0 0 9992 2 41838 0.8617 93.7858 0006194 334.1736 190.6348 1.00274379 15836 CZ-5 R/B 1 41839U 16065B 21059.95694498 .00018573 79835-6 48562-3 0 9994 2 41839 19.4134 311.3515 6302227 245.9892 38.0463 3.67090045 53263 YZ-2 R/B 1 41840U 16065C 21061.36999128 -.00000181 00000-0 00000-0 0 9993 2 41840 4.1904 86.1606 0496333 185.1254 174.7074 0.93474389 14785